owner,sensor,date,latitude,longitude,air_pressure(mBar),qcFlag 
COMPS,ioos:station:USF.COMPS:NFB:1,2011-04-01T00:00:00Z,25.0840,-81.0960,1008.44,1111122 
COMPS,ioos:station:USF.COMPS:NFB:1,2011-04-01T00:06:00Z,25.0840,-81.0960,1008.5,1111122 
COMPS,ioos:station:USF.COMPS:NFB:1,2011-04-01T00:12:00Z,25.0840,-81.0960,1008.54,1111122 
COMPS,ioos:station:USF.COMPS:NFB:1,2011-04-01T00:18:00Z,25.0840,-81.0960,1008.64,1111122 
COMPS,ioos:station:USF.COMPS:NFB:1,2011-04-01T00:24:00Z,25.0840,-81.0960,1008.76,1111122 
COMPS,ioos:station:USF.COMPS:NFB:1,2011-04-01T00:30:00Z,25.0840,-81.0960,1008.88,1111122 
COMPS,ioos:station:USF.COMPS:NFB:1,2011-04-01T00:36:00Z,25.0840,-81.0960,1009.01,1111122 
COMPS,ioos:station:USF.COMPS:NFB:1,2011-04-01T00:42:00Z,25.0840,-81.0960,1009.06,1111122 
COMPS,ioos:station:USF.COMPS:NFB:1,2011-04-01T00:48:00Z,25.0840,-81.0960,1009.24,1111122 
COMPS,ioos:station:USF.COMPS:NFB:1,2011-04-01T00:54:00Z,25.0840,-81.0960,1009.36,1111122 
COMPS,ioos:station:USF.COMPS:NFB:1,2011-04-01T04:00:00Z,25.0840,-81.0960,1010.93,1111122 
COMPS,ioos:station:USF.COMPS:NFB:1,2011-04-01T04:06:00Z,25.0840,-81.0960,1010.88,1111122 
COMPS,ioos:station:USF.COMPS:NFB:1,2011-04-01T04:12:00Z,25.0840,-81.0960,1010.64,1111122 
COMPS,ioos:station:USF.COMPS:NFB:1,2011-04-01T04:18:00Z,25.0840,-81.0960,1010.42,1111122 
COMPS,ioos:station:USF.COMPS:NFB:1,2011-04-01T04:24:00Z,25.0840,-81.0960,1010.29,1111122 
COMPS,ioos:station:USF.COMPS:NFB:1,2011-04-01T04:30:00Z,25.0840,-81.0960,1010.18,1111122 
COMPS,ioos:station:USF.COMPS:NFB:1,2011-04-01T04:36:00Z,25.0840,-81.0960,1010.08,1111122 
COMPS,ioos:station:USF.COMPS:NFB:1,2011-04-01T04:42:00Z,25.0840,-81.0960,1010.02,1111122 
COMPS,ioos:station:USF.COMPS:NFB:1,2011-04-01T04:48:00Z,25.0840,-81.0960,1010.12,1111122 
COMPS,ioos:station:USF.COMPS:NFB:1,2011-04-01T04:54:00Z,25.0840,-81.0960,1010.29,1111122 
COMPS,ioos:station:USF.COMPS:NFB:1,2011-04-01T13:00:00Z,25.0840,-81.0960,1011.21,1111122 
COMPS,ioos:station:USF.COMPS:NFB:1,2011-04-01T13:06:00Z,25.0840,-81.0960,1011.3,1111122 
COMPS,ioos:station:USF.COMPS:NFB:1,2011-04-01T13:12:00Z,25.0840,-81.0960,1011.33,1111122 
COMPS,ioos:station:USF.COMPS:NFB:1,2011-04-01T13:18:00Z,25.0840,-81.0960,1011.41,1111122 
COMPS,ioos:station:USF.COMPS:NFB:1,2011-04-01T13:24:00Z,25.0840,-81.0960,1011.46,1111122 
COMPS,ioos:station:USF.COMPS:NFB:1,2011-04-01T13:30:00Z,25.0840,-81.0960,1011.52,1111122 
COMPS,ioos:station:USF.COMPS:NFB:1,2011-04-01T13:36:00Z,25.0840,-81.0960,1011.53,1111122 
COMPS,ioos:station:USF.COMPS:NFB:1,2011-04-01T13:42:00Z,25.0840,-81.0960,1011.44,1111122 
COMPS,ioos:station:USF.COMPS:NFB:1,2011-04-01T13:48:00Z,25.0840,-81.0960,1011.25,1111122 
COMPS,ioos:station:USF.COMPS:NFB:1,2011-04-01T13:54:00Z,25.0840,-81.0960,1011.36,1111122 
COMPS,ioos:station:USF.COMPS:NFB:1,2011-04-01T17:00:00Z,25.0840,-81.0960,1012.61,1111122 
COMPS,ioos:station:USF.COMPS:NFB:1,2011-04-01T17:06:00Z,25.0840,-81.0960,1012.5,1111122 
COMPS,ioos:station:USF.COMPS:NFB:1,2011-04-01T17:12:00Z,25.0840,-81.0960,1012.52,1111122 
COMPS,ioos:station:USF.COMPS:NFB:1,2011-04-01T17:18:00Z,25.0840,-81.0960,1012.48,1111122 
COMPS,ioos:station:USF.COMPS:NFB:1,2011-04-01T17:24:00Z,25.0840,-81.0960,1012.37,1111122 
COMPS,ioos:station:USF.COMPS:NFB:1,2011-04-01T17:30:00Z,25.0840,-81.0960,1012.42,1111122 
COMPS,ioos:station:USF.COMPS:NFB:1,2011-04-01T17:36:00Z,25.0840,-81.0960,1012.45,1111122 
COMPS,ioos:station:USF.COMPS:NFB:1,2011-04-01T17:42:00Z,25.0840,-81.0960,1012.32,1111122 
COMPS,ioos:station:USF.COMPS:NFB:1,2011-04-01T17:48:00Z,25.0840,-81.0960,1012.22,1111122 
COMPS,ioos:station:USF.COMPS:NFB:1,2011-04-01T17:54:00Z,25.0840,-81.0960,1012.18,1111122 
COMPS,ioos:station:USF.COMPS:NFB:1,2011-04-01T19:00:00Z,25.0840,-81.0960,1012.02,1111122 
COMPS,ioos:station:USF.COMPS:NFB:1,2011-04-01T19:06:00Z,25.0840,-81.0960,1012.01,1111122 
COMPS,ioos:station:USF.COMPS:NFB:1,2011-04-01T19:12:00Z,25.0840,-81.0960,1012.0,1111122 
COMPS,ioos:station:USF.COMPS:NFB:1,2011-04-01T19:18:00Z,25.0840,-81.0960,1011.93,1111122 
COMPS,ioos:station:USF.COMPS:NFB:1,2011-04-01T19:24:00Z,25.0840,-81.0960,1011.89,1111122 
COMPS,ioos:station:USF.COMPS:NFB:1,2011-04-01T19:30:00Z,25.0840,-81.0960,1011.84,1111122 
COMPS,ioos:station:USF.COMPS:NFB:1,2011-04-01T19:36:00Z,25.0840,-81.0960,1011.84,1111122 
COMPS,ioos:station:USF.COMPS:NFB:1,2011-04-01T19:42:00Z,25.0840,-81.0960,1011.76,1111122 
COMPS,ioos:station:USF.COMPS:NFB:1,2011-04-01T19:48:00Z,25.0840,-81.0960,1011.73,1111122 
COMPS,ioos:station:USF.COMPS:NFB:1,2011-04-01T19:54:00Z,25.0840,-81.0960,1011.58,1111122 
COMPS,ioos:station:USF.COMPS:NFB:1,2011-04-01T22:00:00Z,25.0840,-81.0960,1011.61,1111122 
COMPS,ioos:station:USF.COMPS:NFB:1,2011-04-01T22:06:00Z,25.0840,-81.0960,1011.68,1111122 
COMPS,ioos:station:USF.COMPS:NFB:1,2011-04-01T22:12:00Z,25.0840,-81.0960,1011.69,1111122 
COMPS,ioos:station:USF.COMPS:NFB:1,2011-04-01T22:18:00Z,25.0840,-81.0960,1011.73,1111122 
COMPS,ioos:station:USF.COMPS:NFB:1,2011-04-01T22:24:00Z,25.0840,-81.0960,1011.77,1111122 
COMPS,ioos:station:USF.COMPS:NFB:1,2011-04-01T22:30:00Z,25.0840,-81.0960,1011.85,1111122 
COMPS,ioos:station:USF.COMPS:NFB:1,2011-04-01T22:36:00Z,25.0840,-81.0960,1011.94,1111122 
COMPS,ioos:station:USF.COMPS:NFB:1,2011-04-01T22:42:00Z,25.0840,-81.0960,1012.02,1111122 
COMPS,ioos:station:USF.COMPS:NFB:1,2011-04-01T22:48:00Z,25.0840,-81.0960,1012.01,1111122 
COMPS,ioos:station:USF.COMPS:NFB:1,2011-04-01T22:54:00Z,25.0840,-81.0960,1012.0,1111122 
COMPS,ioos:station:USF.COMPS:NFB:1,2011-04-02T04:00:00Z,25.0840,-81.0960,1014.97,1111122 
COMPS,ioos:station:USF.COMPS:NFB:1,2011-04-02T04:06:00Z,25.0840,-81.0960,1014.98,1111122 
COMPS,ioos:station:USF.COMPS:NFB:1,2011-04-02T04:12:00Z,25.0840,-81.0960,1014.98,1111122 
COMPS,ioos:station:USF.COMPS:NFB:1,2011-04-02T04:18:00Z,25.0840,-81.0960,1015.05,1111122 
COMPS,ioos:station:USF.COMPS:NFB:1,2011-04-02T04:24:00Z,25.0840,-81.0960,1014.98,1111122 
COMPS,ioos:station:USF.COMPS:NFB:1,2011-04-02T04:30:00Z,25.0840,-81.0960,1014.97,1111122 
COMPS,ioos:station:USF.COMPS:NFB:1,2011-04-02T04:36:00Z,25.0840,-81.0960,1014.82,1111122 
COMPS,ioos:station:USF.COMPS:NFB:1,2011-04-02T04:42:00Z,25.0840,-81.0960,1014.78,1111122 
COMPS,ioos:station:USF.COMPS:NFB:1,2011-04-02T04:48:00Z,25.0840,-81.0960,1014.86,1111122 
COMPS,ioos:station:USF.COMPS:NFB:1,2011-04-02T04:54:00Z,25.0840,-81.0960,1014.88,1111122 
COMPS,ioos:station:USF.COMPS:NFB:1,2011-04-02T07:00:00Z,25.0840,-81.0960,1014.16,1111122 
COMPS,ioos:station:USF.COMPS:NFB:1,2011-04-02T07:06:00Z,25.0840,-81.0960,1014.28,1111122 
COMPS,ioos:station:USF.COMPS:NFB:1,2011-04-02T07:12:00Z,25.0840,-81.0960,1014.3,1111122 
COMPS,ioos:station:USF.COMPS:NFB:1,2011-04-02T07:18:00Z,25.0840,-81.0960,1014.25,1111122 
COMPS,ioos:station:USF.COMPS:NFB:1,2011-04-02T07:24:00Z,25.0840,-81.0960,1014.25,1111122 
COMPS,ioos:station:USF.COMPS:NFB:1,2011-04-02T07:30:00Z,25.0840,-81.0960,1014.22,1111122 
COMPS,ioos:station:USF.COMPS:NFB:1,2011-04-02T07:36:00Z,25.0840,-81.0960,1014.17,1111122 
COMPS,ioos:station:USF.COMPS:NFB:1,2011-04-02T07:42:00Z,25.0840,-81.0960,1014.05,1111122 
COMPS,ioos:station:USF.COMPS:NFB:1,2011-04-02T07:48:00Z,25.0840,-81.0960,1014.08,1111122 
COMPS,ioos:station:USF.COMPS:NFB:1,2011-04-02T07:54:00Z,25.0840,-81.0960,1014.12,1111122 
COMPS,ioos:station:USF.COMPS:NFB:1,2011-04-02T10:00:00Z,25.0840,-81.0960,1014.76,1111122 
COMPS,ioos:station:USF.COMPS:NFB:1,2011-04-02T10:06:00Z,25.0840,-81.0960,1014.82,1111122 
COMPS,ioos:station:USF.COMPS:NFB:1,2011-04-02T10:12:00Z,25.0840,-81.0960,1014.85,1111122 
COMPS,ioos:station:USF.COMPS:NFB:1,2011-04-02T10:18:00Z,25.0840,-81.0960,1014.9,1111122 
COMPS,ioos:station:USF.COMPS:NFB:1,2011-04-02T10:24:00Z,25.0840,-81.0960,1014.9,1111122 
COMPS,ioos:station:USF.COMPS:NFB:1,2011-04-02T10:30:00Z,25.0840,-81.0960,1014.9,1111122 
COMPS,ioos:station:USF.COMPS:NFB:1,2011-04-02T10:36:00Z,25.0840,-81.0960,1015.05,1111122 
COMPS,ioos:station:USF.COMPS:NFB:1,2011-04-02T10:42:00Z,25.0840,-81.0960,1015.08,1111122 
COMPS,ioos:station:USF.COMPS:NFB:1,2011-04-02T10:48:00Z,25.0840,-81.0960,1015.18,1111122 
COMPS,ioos:station:USF.COMPS:NFB:1,2011-04-02T10:54:00Z,25.0840,-81.0960,1015.21,1111122 
COMPS,ioos:station:USF.COMPS:NFB:1,2011-04-02T13:00:00Z,25.0840,-81.0960,1016.17,1111122 
COMPS,ioos:station:USF.COMPS:NFB:1,2011-04-02T13:06:00Z,25.0840,-81.0960,1016.25,1111122 
COMPS,ioos:station:USF.COMPS:NFB:1,2011-04-02T13:12:00Z,25.0840,-81.0960,1016.26,1111122 
COMPS,ioos:station:USF.COMPS:NFB:1,2011-04-02T13:18:00Z,25.0840,-81.0960,1016.25,1111122 
COMPS,ioos:station:USF.COMPS:NFB:1,2011-04-02T13:24:00Z,25.0840,-81.0960,1016.36,1111122 
COMPS,ioos:station:USF.COMPS:NFB:1,2011-04-02T13:30:00Z,25.0840,-81.0960,1016.38,1111122 
COMPS,ioos:station:USF.COMPS:NFB:1,2011-04-02T13:36:00Z,25.0840,-81.0960,1016.38,1111122 
COMPS,ioos:station:USF.COMPS:NFB:1,2011-04-02T13:42:00Z,25.0840,-81.0960,1016.41,1111122 
COMPS,ioos:station:USF.COMPS:NFB:1,2011-04-02T13:48:00Z,25.0840,-81.0960,1016.52,1111122 
COMPS,ioos:station:USF.COMPS:NFB:1,2011-04-02T13:54:00Z,25.0840,-81.0960,1016.49,1111122 
COMPS,ioos:station:USF.COMPS:NFB:1,2011-04-02T18:00:00Z,25.0840,-81.0960,1016.17,1111122 
COMPS,ioos:station:USF.COMPS:NFB:1,2011-04-02T18:06:00Z,25.0840,-81.0960,1016.1,1111122 
COMPS,ioos:station:USF.COMPS:NFB:1,2011-04-02T18:12:00Z,25.0840,-81.0960,1016.08,1111122 
COMPS,ioos:station:USF.COMPS:NFB:1,2011-04-02T18:18:00Z,25.0840,-81.0960,1016.04,1111122 
COMPS,ioos:station:USF.COMPS:NFB:1,2011-04-02T18:24:00Z,25.0840,-81.0960,1015.97,1111122 
COMPS,ioos:station:USF.COMPS:NFB:1,2011-04-02T18:30:00Z,25.0840,-81.0960,1015.86,1111122 
COMPS,ioos:station:USF.COMPS:NFB:1,2011-04-02T18:36:00Z,25.0840,-81.0960,1015.84,1111122 
COMPS,ioos:station:USF.COMPS:NFB:1,2011-04-02T18:42:00Z,25.0840,-81.0960,1015.81,1111122 
COMPS,ioos:station:USF.COMPS:NFB:1,2011-04-02T18:48:00Z,25.0840,-81.0960,1015.76,1111122 
COMPS,ioos:station:USF.COMPS:NFB:1,2011-04-02T18:54:00Z,25.0840,-81.0960,1015.68,1111122 
COMPS,ioos:station:USF.COMPS:NFB:1,2011-04-02T21:00:00Z,25.0840,-81.0960,1015.0,1111122 
COMPS,ioos:station:USF.COMPS:NFB:1,2011-04-02T21:06:00Z,25.0840,-81.0960,1014.93,1111122 
COMPS,ioos:station:USF.COMPS:NFB:1,2011-04-02T21:12:00Z,25.0840,-81.0960,1014.84,1111122 
COMPS,ioos:station:USF.COMPS:NFB:1,2011-04-02T21:18:00Z,25.0840,-81.0960,1014.76,1111122 
COMPS,ioos:station:USF.COMPS:NFB:1,2011-04-02T21:24:00Z,25.0840,-81.0960,1014.8,1111122 
COMPS,ioos:station:USF.COMPS:NFB:1,2011-04-02T21:30:00Z,25.0840,-81.0960,1014.78,1111122 
COMPS,ioos:station:USF.COMPS:NFB:1,2011-04-02T21:36:00Z,25.0840,-81.0960,1014.86,1111122 
COMPS,ioos:station:USF.COMPS:NFB:1,2011-04-02T21:42:00Z,25.0840,-81.0960,1014.89,1111122 
COMPS,ioos:station:USF.COMPS:NFB:1,2011-04-02T21:48:00Z,25.0840,-81.0960,1014.85,1111122 
COMPS,ioos:station:USF.COMPS:NFB:1,2011-04-02T21:54:00Z,25.0840,-81.0960,1014.9,1111122 
COMPS,ioos:station:USF.COMPS:NFB:1,2011-04-03T03:00:00Z,25.0840,-81.0960,1017.94,1111122 
COMPS,ioos:station:USF.COMPS:NFB:1,2011-04-03T03:06:00Z,25.0840,-81.0960,1018.01,1111122 
COMPS,ioos:station:USF.COMPS:NFB:1,2011-04-03T03:12:00Z,25.0840,-81.0960,1017.98,1111122 
COMPS,ioos:station:USF.COMPS:NFB:1,2011-04-03T03:18:00Z,25.0840,-81.0960,1018.01,1111122 
COMPS,ioos:station:USF.COMPS:NFB:1,2011-04-03T03:24:00Z,25.0840,-81.0960,1018.01,1111122 
COMPS,ioos:station:USF.COMPS:NFB:1,2011-04-03T03:30:00Z,25.0840,-81.0960,1017.96,1111122 
COMPS,ioos:station:USF.COMPS:NFB:1,2011-04-03T03:36:00Z,25.0840,-81.0960,1018.02,1111122 
COMPS,ioos:station:USF.COMPS:NFB:1,2011-04-03T03:42:00Z,25.0840,-81.0960,1018.1,1111122 
COMPS,ioos:station:USF.COMPS:NFB:1,2011-04-03T03:48:00Z,25.0840,-81.0960,1018.17,1111122 
COMPS,ioos:station:USF.COMPS:NFB:1,2011-04-03T03:54:00Z,25.0840,-81.0960,1018.14,1111122 
COMPS,ioos:station:USF.COMPS:NFB:1,2011-04-03T06:00:00Z,25.0840,-81.0960,1017.17,1111122 
COMPS,ioos:station:USF.COMPS:NFB:1,2011-04-03T06:06:00Z,25.0840,-81.0960,1017.18,1111122 
COMPS,ioos:station:USF.COMPS:NFB:1,2011-04-03T06:12:00Z,25.0840,-81.0960,1017.16,1111122 
COMPS,ioos:station:USF.COMPS:NFB:1,2011-04-03T06:18:00Z,25.0840,-81.0960,1017.14,1111122 
COMPS,ioos:station:USF.COMPS:NFB:1,2011-04-03T06:24:00Z,25.0840,-81.0960,1016.97,1111122 
COMPS,ioos:station:USF.COMPS:NFB:1,2011-04-03T06:30:00Z,25.0840,-81.0960,1017.08,1111122 
COMPS,ioos:station:USF.COMPS:NFB:1,2011-04-03T06:36:00Z,25.0840,-81.0960,1016.94,1111122 
COMPS,ioos:station:USF.COMPS:NFB:1,2011-04-03T06:42:00Z,25.0840,-81.0960,1016.92,1111122 
COMPS,ioos:station:USF.COMPS:NFB:1,2011-04-03T06:48:00Z,25.0840,-81.0960,1016.92,1111122 
COMPS,ioos:station:USF.COMPS:NFB:1,2011-04-03T06:54:00Z,25.0840,-81.0960,1016.89,1111122 
COMPS,ioos:station:USF.COMPS:NFB:1,2011-04-03T09:00:00Z,25.0840,-81.0960,1016.65,1111122 
COMPS,ioos:station:USF.COMPS:NFB:1,2011-04-03T09:06:00Z,25.0840,-81.0960,1016.69,1111122 
COMPS,ioos:station:USF.COMPS:NFB:1,2011-04-03T09:12:00Z,25.0840,-81.0960,1016.77,1111122 
COMPS,ioos:station:USF.COMPS:NFB:1,2011-04-03T09:18:00Z,25.0840,-81.0960,1016.85,1111122 
COMPS,ioos:station:USF.COMPS:NFB:1,2011-04-03T09:24:00Z,25.0840,-81.0960,1016.85,1111122 
COMPS,ioos:station:USF.COMPS:NFB:1,2011-04-03T09:30:00Z,25.0840,-81.0960,1016.88,1111122 
COMPS,ioos:station:USF.COMPS:NFB:1,2011-04-03T09:36:00Z,25.0840,-81.0960,1016.93,1111122 
COMPS,ioos:station:USF.COMPS:NFB:1,2011-04-03T09:42:00Z,25.0840,-81.0960,1016.96,1111122 
COMPS,ioos:station:USF.COMPS:NFB:1,2011-04-03T09:48:00Z,25.0840,-81.0960,1016.98,1111122 
COMPS,ioos:station:USF.COMPS:NFB:1,2011-04-03T09:54:00Z,25.0840,-81.0960,1017.06,1111122 
COMPS,ioos:station:USF.COMPS:NFB:1,2011-04-03T12:00:00Z,25.0840,-81.0960,1018.56,1111122 
COMPS,ioos:station:USF.COMPS:NFB:1,2011-04-03T12:06:00Z,25.0840,-81.0960,1018.65,1111122 
COMPS,ioos:station:USF.COMPS:NFB:1,2011-04-03T12:12:00Z,25.0840,-81.0960,1018.72,1111122 
COMPS,ioos:station:USF.COMPS:NFB:1,2011-04-03T12:18:00Z,25.0840,-81.0960,1018.76,1111122 
COMPS,ioos:station:USF.COMPS:NFB:1,2011-04-03T12:24:00Z,25.0840,-81.0960,1018.92,1111122 
COMPS,ioos:station:USF.COMPS:NFB:1,2011-04-03T12:30:00Z,25.0840,-81.0960,1019.0,1111122 
COMPS,ioos:station:USF.COMPS:NFB:1,2011-04-03T12:36:00Z,25.0840,-81.0960,1019.06,1111122 
COMPS,ioos:station:USF.COMPS:NFB:1,2011-04-03T12:42:00Z,25.0840,-81.0960,1019.14,1111122 
COMPS,ioos:station:USF.COMPS:NFB:1,2011-04-03T12:48:00Z,25.0840,-81.0960,1019.18,1111122 
COMPS,ioos:station:USF.COMPS:NFB:1,2011-04-03T12:54:00Z,25.0840,-81.0960,1019.32,1111122 
COMPS,ioos:station:USF.COMPS:NFB:1,2011-04-03T15:00:00Z,25.0840,-81.0960,1020.38,1111122 
COMPS,ioos:station:USF.COMPS:NFB:1,2011-04-03T15:06:00Z,25.0840,-81.0960,1020.44,1111122 
COMPS,ioos:station:USF.COMPS:NFB:1,2011-04-03T15:12:00Z,25.0840,-81.0960,1020.36,1111122 
COMPS,ioos:station:USF.COMPS:NFB:1,2011-04-03T15:18:00Z,25.0840,-81.0960,1020.44,1111122 
COMPS,ioos:station:USF.COMPS:NFB:1,2011-04-03T15:24:00Z,25.0840,-81.0960,1020.36,1111122 
COMPS,ioos:station:USF.COMPS:NFB:1,2011-04-03T15:30:00Z,25.0840,-81.0960,1020.32,1111122 
COMPS,ioos:station:USF.COMPS:NFB:1,2011-04-03T15:36:00Z,25.0840,-81.0960,1020.34,1111122 
COMPS,ioos:station:USF.COMPS:NFB:1,2011-04-03T15:42:00Z,25.0840,-81.0960,1020.33,1111122 
COMPS,ioos:station:USF.COMPS:NFB:1,2011-04-03T15:48:00Z,25.0840,-81.0960,1020.32,1111122 
COMPS,ioos:station:USF.COMPS:NFB:1,2011-04-03T15:54:00Z,25.0840,-81.0960,1020.3,1111122 
COMPS,ioos:station:USF.COMPS:NFB:1,2011-04-03T18:00:00Z,25.0840,-81.0960,1018.98,1111122 
COMPS,ioos:station:USF.COMPS:NFB:1,2011-04-03T18:06:00Z,25.0840,-81.0960,1018.93,1111122 
COMPS,ioos:station:USF.COMPS:NFB:1,2011-04-03T18:12:00Z,25.0840,-81.0960,1018.85,1111122 
COMPS,ioos:station:USF.COMPS:NFB:1,2011-04-03T18:18:00Z,25.0840,-81.0960,1018.78,1111122 
COMPS,ioos:station:USF.COMPS:NFB:1,2011-04-03T18:24:00Z,25.0840,-81.0960,1018.84,1111122 
COMPS,ioos:station:USF.COMPS:NFB:1,2011-04-03T18:30:00Z,25.0840,-81.0960,1018.68,1111122 
COMPS,ioos:station:USF.COMPS:NFB:1,2011-04-03T18:36:00Z,25.0840,-81.0960,1018.58,1111122 
COMPS,ioos:station:USF.COMPS:NFB:1,2011-04-03T18:42:00Z,25.0840,-81.0960,1018.58,1111122 
COMPS,ioos:station:USF.COMPS:NFB:1,2011-04-03T18:48:00Z,25.0840,-81.0960,1018.45,1111122 
COMPS,ioos:station:USF.COMPS:NFB:1,2011-04-03T18:54:00Z,25.0840,-81.0960,1018.3,1111122 
COMPS,ioos:station:USF.COMPS:NFB:1,2011-04-03T21:00:00Z,25.0840,-81.0960,1017.08,1111122 
COMPS,ioos:station:USF.COMPS:NFB:1,2011-04-03T21:06:00Z,25.0840,-81.0960,1016.93,1111122 
COMPS,ioos:station:USF.COMPS:NFB:1,2011-04-03T21:12:00Z,25.0840,-81.0960,1016.96,1111122 
COMPS,ioos:station:USF.COMPS:NFB:1,2011-04-03T21:18:00Z,25.0840,-81.0960,1017.0,1111122 
COMPS,ioos:station:USF.COMPS:NFB:1,2011-04-03T21:24:00Z,25.0840,-81.0960,1017.0,1111122 
COMPS,ioos:station:USF.COMPS:NFB:1,2011-04-03T21:30:00Z,25.0840,-81.0960,1016.9,1111122 
COMPS,ioos:station:USF.COMPS:NFB:1,2011-04-03T21:36:00Z,25.0840,-81.0960,1016.85,1111122 
COMPS,ioos:station:USF.COMPS:NFB:1,2011-04-03T21:42:00Z,25.0840,-81.0960,1016.78,1111122 
COMPS,ioos:station:USF.COMPS:NFB:1,2011-04-03T21:48:00Z,25.0840,-81.0960,1016.8,1111122 
COMPS,ioos:station:USF.COMPS:NFB:1,2011-04-03T21:54:00Z,25.0840,-81.0960,1016.89,1111122 
COMPS,ioos:station:USF.COMPS:NFB:1,2011-04-04T00:00:00Z,25.0840,-81.0960,1017.41,1111122 
COMPS,ioos:station:USF.COMPS:NFB:1,2011-04-04T00:06:00Z,25.0840,-81.0960,1017.42,1111122 
COMPS,ioos:station:USF.COMPS:NFB:1,2011-04-04T00:12:00Z,25.0840,-81.0960,1017.45,1111122 
COMPS,ioos:station:USF.COMPS:NFB:1,2011-04-04T00:18:00Z,25.0840,-81.0960,1017.52,1111122 
COMPS,ioos:station:USF.COMPS:NFB:1,2011-04-04T00:24:00Z,25.0840,-81.0960,1017.6,1111122 
COMPS,ioos:station:USF.COMPS:NFB:1,2011-04-04T00:30:00Z,25.0840,-81.0960,1017.6,1111122 
COMPS,ioos:station:USF.COMPS:NFB:1,2011-04-04T00:36:00Z,25.0840,-81.0960,1017.65,1111122 
COMPS,ioos:station:USF.COMPS:NFB:1,2011-04-04T00:42:00Z,25.0840,-81.0960,1017.73,1111122 
COMPS,ioos:station:USF.COMPS:NFB:1,2011-04-04T00:48:00Z,25.0840,-81.0960,1017.86,1111122 
COMPS,ioos:station:USF.COMPS:NFB:1,2011-04-04T00:54:00Z,25.0840,-81.0960,1017.89,1111122 
COMPS,ioos:station:USF.COMPS:NFB:1,2011-04-04T03:00:00Z,25.0840,-81.0960,1018.97,1111122 
COMPS,ioos:station:USF.COMPS:NFB:1,2011-04-04T03:06:00Z,25.0840,-81.0960,1018.94,1111122 
COMPS,ioos:station:USF.COMPS:NFB:1,2011-04-04T03:12:00Z,25.0840,-81.0960,1018.96,1111122 
COMPS,ioos:station:USF.COMPS:NFB:1,2011-04-04T03:18:00Z,25.0840,-81.0960,1018.93,1111122 
COMPS,ioos:station:USF.COMPS:NFB:1,2011-04-04T03:24:00Z,25.0840,-81.0960,1018.97,1111122 
COMPS,ioos:station:USF.COMPS:NFB:1,2011-04-04T03:30:00Z,25.0840,-81.0960,1018.97,1111122 
COMPS,ioos:station:USF.COMPS:NFB:1,2011-04-04T03:36:00Z,25.0840,-81.0960,1019.0,1111122 
COMPS,ioos:station:USF.COMPS:NFB:1,2011-04-04T03:42:00Z,25.0840,-81.0960,1018.97,1111122 
COMPS,ioos:station:USF.COMPS:NFB:1,2011-04-04T03:48:00Z,25.0840,-81.0960,1018.94,1111122 
COMPS,ioos:station:USF.COMPS:NFB:1,2011-04-04T03:54:00Z,25.0840,-81.0960,1018.9,1111122 
COMPS,ioos:station:USF.COMPS:NFB:1,2011-04-04T06:00:00Z,25.0840,-81.0960,1017.88,1111122 
COMPS,ioos:station:USF.COMPS:NFB:1,2011-04-04T06:06:00Z,25.0840,-81.0960,1017.78,1111122 
COMPS,ioos:station:USF.COMPS:NFB:1,2011-04-04T06:12:00Z,25.0840,-81.0960,1017.73,1111122 
COMPS,ioos:station:USF.COMPS:NFB:1,2011-04-04T06:18:00Z,25.0840,-81.0960,1017.68,1111122 
COMPS,ioos:station:USF.COMPS:NFB:1,2011-04-04T06:24:00Z,25.0840,-81.0960,1017.66,1111122 
COMPS,ioos:station:USF.COMPS:NFB:1,2011-04-04T06:30:00Z,25.0840,-81.0960,1017.64,1111122 
COMPS,ioos:station:USF.COMPS:NFB:1,2011-04-04T06:36:00Z,25.0840,-81.0960,1017.61,1111122 
COMPS,ioos:station:USF.COMPS:NFB:1,2011-04-04T06:42:00Z,25.0840,-81.0960,1017.53,1111122 
COMPS,ioos:station:USF.COMPS:NFB:1,2011-04-04T06:48:00Z,25.0840,-81.0960,1017.45,1111122 
COMPS,ioos:station:USF.COMPS:NFB:1,2011-04-04T06:54:00Z,25.0840,-81.0960,1017.34,1111122 
COMPS,ioos:station:USF.COMPS:NFB:1,2011-04-04T09:00:00Z,25.0840,-81.0960,1016.73,1111122 
COMPS,ioos:station:USF.COMPS:NFB:1,2011-04-04T09:06:00Z,25.0840,-81.0960,1016.76,1111122 
COMPS,ioos:station:USF.COMPS:NFB:1,2011-04-04T09:12:00Z,25.0840,-81.0960,1016.69,1111122 
COMPS,ioos:station:USF.COMPS:NFB:1,2011-04-04T09:18:00Z,25.0840,-81.0960,1016.72,1111122 
COMPS,ioos:station:USF.COMPS:NFB:1,2011-04-04T09:24:00Z,25.0840,-81.0960,1016.74,1111122 
COMPS,ioos:station:USF.COMPS:NFB:1,2011-04-04T09:30:00Z,25.0840,-81.0960,1016.8,1111122 
COMPS,ioos:station:USF.COMPS:NFB:1,2011-04-04T09:36:00Z,25.0840,-81.0960,1016.88,1111122 
COMPS,ioos:station:USF.COMPS:NFB:1,2011-04-04T09:42:00Z,25.0840,-81.0960,1016.88,1111122 
COMPS,ioos:station:USF.COMPS:NFB:1,2011-04-04T09:48:00Z,25.0840,-81.0960,1016.92,1111122 
COMPS,ioos:station:USF.COMPS:NFB:1,2011-04-04T09:54:00Z,25.0840,-81.0960,1016.94,1111122 
COMPS,ioos:station:USF.COMPS:NFB:1,2011-04-04T14:00:00Z,25.0840,-81.0960,1018.78,1111122 
COMPS,ioos:station:USF.COMPS:NFB:1,2011-04-04T14:06:00Z,25.0840,-81.0960,1018.82,1111122 
COMPS,ioos:station:USF.COMPS:NFB:1,2011-04-04T14:12:00Z,25.0840,-81.0960,1018.86,1111122 
COMPS,ioos:station:USF.COMPS:NFB:1,2011-04-04T14:18:00Z,25.0840,-81.0960,1018.92,1111122 
COMPS,ioos:station:USF.COMPS:NFB:1,2011-04-04T14:24:00Z,25.0840,-81.0960,1018.94,1111122 
COMPS,ioos:station:USF.COMPS:NFB:1,2011-04-04T14:30:00Z,25.0840,-81.0960,1019.04,1111122 
COMPS,ioos:station:USF.COMPS:NFB:1,2011-04-04T14:36:00Z,25.0840,-81.0960,1019.08,1111122 
COMPS,ioos:station:USF.COMPS:NFB:1,2011-04-04T14:42:00Z,25.0840,-81.0960,1019.04,1111122 
COMPS,ioos:station:USF.COMPS:NFB:1,2011-04-04T14:48:00Z,25.0840,-81.0960,1019.12,1111122 
COMPS,ioos:station:USF.COMPS:NFB:1,2011-04-04T14:54:00Z,25.0840,-81.0960,1019.14,1111122 
COMPS,ioos:station:USF.COMPS:NFB:1,2011-04-04T16:00:00Z,25.0840,-81.0960,1018.93,1111122 
COMPS,ioos:station:USF.COMPS:NFB:1,2011-04-04T16:06:00Z,25.0840,-81.0960,1018.88,1111122 
COMPS,ioos:station:USF.COMPS:NFB:1,2011-04-04T16:12:00Z,25.0840,-81.0960,1018.9,1111122 
COMPS,ioos:station:USF.COMPS:NFB:1,2011-04-04T16:18:00Z,25.0840,-81.0960,1018.85,1111122 
COMPS,ioos:station:USF.COMPS:NFB:1,2011-04-04T16:24:00Z,25.0840,-81.0960,1018.88,1111122 
COMPS,ioos:station:USF.COMPS:NFB:1,2011-04-04T16:30:00Z,25.0840,-81.0960,1018.88,1111122 
COMPS,ioos:station:USF.COMPS:NFB:1,2011-04-04T16:36:00Z,25.0840,-81.0960,1018.81,1111122 
COMPS,ioos:station:USF.COMPS:NFB:1,2011-04-04T16:42:00Z,25.0840,-81.0960,1018.7,1111122 
COMPS,ioos:station:USF.COMPS:NFB:1,2011-04-04T16:48:00Z,25.0840,-81.0960,1018.6,1111122 
COMPS,ioos:station:USF.COMPS:NFB:1,2011-04-04T16:54:00Z,25.0840,-81.0960,1018.58,1111122 
COMPS,ioos:station:USF.COMPS:NFB:1,2011-04-04T19:00:00Z,25.0840,-81.0960,1017.08,1111122 
COMPS,ioos:station:USF.COMPS:NFB:1,2011-04-04T19:06:00Z,25.0840,-81.0960,1017.04,1111122 
COMPS,ioos:station:USF.COMPS:NFB:1,2011-04-04T19:12:00Z,25.0840,-81.0960,1016.94,1111122 
COMPS,ioos:station:USF.COMPS:NFB:1,2011-04-04T19:18:00Z,25.0840,-81.0960,1016.85,1111122 
COMPS,ioos:station:USF.COMPS:NFB:1,2011-04-04T19:24:00Z,25.0840,-81.0960,1016.74,1111122 
COMPS,ioos:station:USF.COMPS:NFB:1,2011-04-04T19:30:00Z,25.0840,-81.0960,1016.69,1111122 
COMPS,ioos:station:USF.COMPS:NFB:1,2011-04-04T19:36:00Z,25.0840,-81.0960,1016.65,1111122 
COMPS,ioos:station:USF.COMPS:NFB:1,2011-04-04T19:42:00Z,25.0840,-81.0960,1016.65,1111122 
COMPS,ioos:station:USF.COMPS:NFB:1,2011-04-04T19:48:00Z,25.0840,-81.0960,1016.72,1111122 
COMPS,ioos:station:USF.COMPS:NFB:1,2011-04-04T19:54:00Z,25.0840,-81.0960,1016.69,1111122 
COMPS,ioos:station:USF.COMPS:NFB:1,2011-04-04T22:00:00Z,25.0840,-81.0960,1015.82,1111122 
COMPS,ioos:station:USF.COMPS:NFB:1,2011-04-04T22:06:00Z,25.0840,-81.0960,1015.82,1111122 
COMPS,ioos:station:USF.COMPS:NFB:1,2011-04-04T22:12:00Z,25.0840,-81.0960,1015.72,1111122 
COMPS,ioos:station:USF.COMPS:NFB:1,2011-04-04T22:18:00Z,25.0840,-81.0960,1015.64,1111122 
COMPS,ioos:station:USF.COMPS:NFB:1,2011-04-04T22:24:00Z,25.0840,-81.0960,1015.53,1111122 
COMPS,ioos:station:USF.COMPS:NFB:1,2011-04-04T22:30:00Z,25.0840,-81.0960,1015.52,1111122 